GEFSSE_con_probscp_228.txt.gz
Probability
0 0 0 0 0 0 0 0 0 0 0 0 0 0 0 0 0 0 0 1 1 0 0 0 0 0 0 0 0 0 0 0 0 0 0 0 0 1 0 0 0 0 0
0 0 0 0 0 0 0 0 0 0 0 0 0 0 0 0 0 0 0 1 1 0 0 0 0 0 0 0 0 0 0 0 0 0 0 0 0 1 0 0 0 0 0
0 0 0 0 0 0 0 0 0 1 1 0 0 0 0 0 0 0 0 1 1 0 0 0 0 0 0 0 0 0 0 0 0 0 0 0 0 0 0 0 0 0 0
0 0 0 0 0 0 0 0 0 1 1 1 0 0 0 0 0 0 0 0 0 0 0 0 0 0 0 0 0 0 0 0 0 1 0 0 0 0 0 0 0 0 0
0 0 0 0 0 0 0 0 0 1 2 1 0 0 0 1 1 1 1 2 1 0 0 0 0 0 0 0 0 0 0 0 0 0 0 0 0 0 0 0 0 0 0
0 0 0 0 0 0 0 0 1 2 2 1 0 0 0 1 2 2 2 3 2 1 0 0 0 0 0 0 0 0 1 1 1 0 0 0 0 0 0 0 0 0 0
0 0 0 0 0 0 0 0 1 1 1 1 2 1 0 1 2 3 2 3 2 1 0 0 0 0 0 0 0 0 1 2 1 0 0 0 0 0 0 0 0 0 0
0 0 0 0 0 0 0 0 0 1 1 2 3 2 1 1 3 3 3 3 2 1 0 0 0 0 0 0 0 0 1 1 0 0 0 0 0 0 0 0 0 0 0
0 0 0 0 0 0 0 0 0 1 2 3 3 3 3 3 3 3 3 3 2 1 0 0 0 0 0 0 0 0 0 0 0 0 0 0 0 0 0 0 0 0 0
0 0 0 0 0 0 0 0 0 1 2 3 3 3 3 3 3 3 3 3 1 0 0 0 0 0 0 0 0 0 0 1 0 0 0 0 0 0 0 0 0 0 0
0 0 0 0 0 0 0 0 0 0 2 3 3 3 3 2 2 2 2 2 1 0 0 0 1 1 1 0 0 0 0 0 0 0 0 0 0 0 0 0 0 0 0
1 0 0 0 0 0 0 0 0 0 1 2 2 2 2 1 0 1 1 1 0 0 0 0 1 1 1 0 0 0 0 0 0 0 0 0 0 0 0 0 0 0 0
2 1 0 0 0 0 0 0 0 0 1 1 1 1 1 0 0 0 0 0 0 0 0 0 1 1 0 0 0 0 0 0 0 0 0 0 0 0 0 0 0 0 0
2 2 1 1 0 0 1 1 1 0 0 0 0 0 0 0 0 0 0 0 0 0 0 0 0 0 0 0 0 0 0 0 0 0 0 0 0 0 0 0 0 0 0
3 3 2 1 1 1 1 1 1 0 0 0 0 0 0 0 0 0 0 0 0 0 0 0 0 0 0 0 0 0 0 0 0 0 0 0 0 0 0 0 0 0 0
3 3 3 3 3 3 2 1 0 0 0 0 0 0 0 0 0 0 0 0 0 0 1 1 0 1 1 0 0 0 0 0 0 0 0 0 0 0 0 0 0 0 0
3 3 3 3 4 4 3 1 0 0 0 1 1 1 1 1 1 0 1 2 2 2 2 3 2 2 2 0 0 0 0 0 0 0 0 0 0 0 0 0 0 0 0
3 3 3 3 4 5 5 3 1 1 1 2 2 2 3 3 3 2 3 5 4 3 4 5 5 5 3 1 1 1 0 1 1 0 0 0 0 0 0 0 0 0 0
3 3 3 4 5 6 6 5 4 3 3 3 3 3 4 5 5 5 6 6 5 4 5 6 6 6 5 3 2 1 1 2 2 1 1 1 1 1 0 0 1 1 1
5 6 6 7 7 7 7 6 6 5 4 3 3 3 4 6 7 8 7 6 5 5 7 7 7 7 6 5 3 2 2 3 3 3 2 2 1 1 0 0 1 2 2
8 10 11 10 10 9 8 7 6 6 4 3 3 4 5 6 7 8 6 5 6 7 8 8 8 8 8 7 5 4 3 3 3 3 3 2 1 0 0 0 2 3 4
10 12 13 13 13 12 10 7 6 6 5 4 4 5 6 6 5 6 6 4 5 7 8 9 10 10 10 9 8 6 5 3 4 3 2 1 0 0 0 0 2 3 4
11 11 12 15 17 16 12 9 7 7 6 5 5 6 6 6 4 4 5 4 5 6 7 8 10 11 12 12 10 9 7 5 4 3 1 0 0 0 0 0 1 1 2
13 12 14 19 22 21 17 13 10 8 6 5 5 5 6 6 5 4 4 6 6 7 7 8 9 11 12 12 12 11 9 8 6 3 1 0 0 0 0 0 0 0 1
13 12 14 21 25 26 24 21 16 11 7 6 6 6 6 6 6 6 7 9 10 10 9 9 10 10 10 10 11 10 9 8 7 4 1 0 1 1 0 1 1 1 1
12 11 13 20 26 29 30 28 22 13 8 7 8 8 6 7 7 7 9 11 12 12 10 10 11 10 8 8 9 8 7 7 6 5 2 1 2 2 1 2 2 1 1

GEFSSE_con_probscp_234.txt.gz
Probability
0 0 0 0 0 0 0 0 0 0 0 0 0 0 0 0 0 0 0 0 0 0 0 0 0 1 0 0 0 0 0 1 1 1 0 0 0 0 0 0 0 0 0
0 0 0 0 0 0 0 0 0 0 0 0 0 0 0 0 0 0 0 0 0 0 0 0 0 1 0 0 0 0 0 0 0 0 0 0 0 0 0 0 0 0 0
0 0 0 0 0 0 0 0 0 0 0 0 0 0 0 0 1 0 0 0 0 0 0 0 0 0 0 0 0 0 0 0 0 0 0 0 0 0 0 0 0 0 0
1 1 1 0 0 0 0 0 0 0 0 0 0 0 0 0 0 0 0 0 0 0 0 0 0 0 0 0 0 0 0 0 0 0 0 0 0 0 0 0 0 0 0
2 2 2 1 0 0 0 0 0 0 0 0 0 0 0 0 0 0 0 0 0 0 0 0 1 0 0 0 0 0 0 0 0 0 0 0 0 0 0 0 0 0 0
3 3 3 2 1 0 0 0 0 0 0 0 0 0 0 0 0 0 0 0 0 1 0 0 0 0 0 0 0 1 1 0 0 0 0 0 0 0 0 0 0 0 0
3 3 3 3 2 1 0 0 0 0 0 0 0 0 0 0 0 0 0 0 0 0 0 0 0 0 0 0 1 2 2 1 0 0 0 0 0 0 0 0 0 0 0
4 3 3 3 3 2 1 0 0 0 0 0 0 0 1 0 0 0 0 0 0 0 0 0 0 0 0 0 1 2 3 3 1 0 0 0 0 0 0 0 0 0 0
4 4 3 3 3 2 1 0 0 0 0 0 0 0 0 0 0 0 0 0 0 0 0 0 0 0 0 0 0 2 4 4 2 0 0 0 0 0 0 0 0 0 0
4 3 3 3 4 3 2 1 0 0 0 0 0 0 0 0 0 0 0 0 0 0 0 0 0 0 0 0 0 1 2 3 1 0 0 0 0 0 0 0 0 0 0
3 3 3 4 4 4 4 3 1 0 0 0 0 0 1 1 1 1 1 1 0 0 0 1 1 1 1 1 1 1 1 1 0 0 0 0 0 0 0 0 0 0 0
3 3 3 3 3 4 4 4 2 2 1 0 0 0 1 1 1 2 2 2 1 1 1 3 4 4 3 3 2 2 1 0 0 0 0 0 0 0 0 0 0 0 0
3 3 3 3 2 3 3 3 3 3 3 1 1 1 1 1 1 2 4 4 3 3 3 4 5 5 4 3 2 2 1 0 0 0 0 0 0 0 0 0 0 0 0
3 3 3 3 2 2 3 3 3 3 3 2 2 1 1 1 2 3 5 5 4 3 3 4 4 3 2 1 1 1 1 0 0 0 0 0 0 0 0 0 0 0 0
3 3 4 3 3 3 2 2 3 3 2 3 4 3 3 3 3 4 5 5 3 3 4 5 5 3 2 1 1 0 0 0 0 1 1 0 0 0 0 0 0 0 0
4 5 6 5 5 5 4 3 4 4 3 3 6 7 6 6 6 6 7 7 6 5 5 7 7 6 5 4 3 2 2 2 2 3 3 2 0 0 1 2 1 0 0
7 8 9 8 8 8 7 6 6 6 4 4 6 8 9 9 9 8 8 9 8 8 8 8 9 9 8 7 6 4 3 4 5 6 5 4 2 1 1 2 2 1 0
11 12 11 9 10 10 8 6 6 6 5 4 5 8 10 11 11 10 9 10 10 9 8 9 9 9 8 7 6 5 5 5 6 6 5 5 4 3 2 2 2 1 1
15 16 14 11 11 12 9 6 6 6 6 6 7 9 11 12 12 11 11 12 12 11 10 8 8 8 8 7 6 5 5 6 6 5 6 7 7 7 5 3 2 2 1
22 22 18 15 15 14 11 9 8 9 9 10 12 14 14 12 11 10 10 11 12 12 11 9 8 8 8 8 7 6 6 6 6 6 7 8 9 9 8 7 6 4 3
33 31 26 23 22 19 16 14 13 12 12 12 15 17 17 14 12 10 9 9 10 11 11 10 9 8 8 9 8 7 7 6 7 8 8 7 8 8 8 9 10 9 7
42 39 33 30 28 24 19 18 17 16 14 14 15 17 17 16 14 12 10 8 7 9 9 9 9 9 8 8 8 7 6 6 7 8 7 6 6 8 10 12 15 14 11
43 42 38 35 33 28 24 22 23 24 21 18 17 18 19 18 16 15 14 10 7 7 8 8 9 9 9 8 7 7 6 5 5 5 5 5 7 9 11 14 16 16 13
40 39 41 42 39 34 31 30 32 32 29 23 22 25 25 23 20 20 20 16 11 9 8 9 9 9 8 7 7 7 6 5 4 4 3 3 6 8 10 12 13 12 12
34 36 41 47 46 40 37 38 39 37 33 28 27 30 32 29 25 24 26 24 20 16 14 14 12 11 9 7 7 6 5 4 4 4 2 1 2 5 8 10 9 9 10
30 32 40 49 49 43 41 41 40 38 34 31 29 31 33 31 29 27 28 28 26 23 21 19 16 12 10 7 6 5 4 3 4 3 2 1 1 2 5 7 8 9 10

GEFSSE_con_probscp_240.txt.gz
Probability
0 1 2 1 0 0 0 0 2 3 4 2 1 2 4 3 1 0 0 0 1 2 3 2 1 0 0 0 0 0 0 0 0 0 0 0 0 0 1 1 1 1 1
0 1 2 1 1 1 1 1 2 3 3 2 2 2 3 2 1 0 0 0 1 2 2 2 1 0 0 0 0 0 0 0 0 0 0 0 0 0 0 1 2 1 1
0 1 2 1 1 2 1 1 1 1 1 1 2 2 2 1 0 0 0 0 0 1 2 2 1 0 0 0 0 0 0 0 0 0 0 0 0 0 1 2 2 1 1
0 1 1 1 1 1 1 0 0 0 0 0 1 1 1 0 0 0 0 0 0 0 1 2 1 0 0 0 0 0 0 0 0 0 0 0 0 0 2 2 1 0 0
0 0 0 0 0 0 0 0 0 0 0 0 0 0 0 0 0 0 0 0 0 1 1 1 0 0 0 0 0 0 0 0 0 0 1 1 0 0 1 1 1 0 0
0 0 0 0 0 0 0 0 0 0 0 0 0 0 0 0 0 0 0 1 1 1 1 1 0 0 0 0 0 0 0 0 0 1 2 2 1 0 0 0 0 0 0
0 0 0 0 0 0 0 0 0 0 0 0 0 0 0 0 0 1 1 3 3 3 2 1 0 0 0 0 0 0 0 0 0 1 2 2 1 0 0 0 0 0 0
0 0 0 1 0 0 0 0 0 0 0 0 0 0 1 1 1 2 3 4 5 4 3 1 0 0 0 0 0 0 0 0 0 0 1 1 0 0 0 0 0 0 0
1 0 0 0 0 0 0 0 1 1 0 0 0 0 1 2 2 2 3 4 4 3 2 1 0 0 1 2 1 1 0 0 0 0 0 0 0 0 0 0 0 0 0
2 1 0 0 0 0 0 0 1 1 0 0 0 0 1 2 1 2 3 3 3 2 1 0 1 1 2 3 3 3 1 0 0 0 0 0 0 0 0 0 0 0 0
3 2 1 0 0 0 0 0 1 1 0 0 0 0 0 0 0 1 4 4 3 2 1 1 1 2 3 2 3 3 1 0 0 0 0 0 0 0 0 0 0 0 0
3 3 1 0 0 0 0 0 0 0 0 0 0 0 0 0 0 1 3 3 2 2 1 1 1 1 1 1 1 1 0 0 0 0 0 0 0 0 0 0 0 0 0
4 3 2 1 0 0 0 0 0 0 0 0 0 0 0 0 0 0 1 1 1 1 1 0 0 0 1 1 0 0 0 0 0 0 0 0 0 0 0 0 0 0 0
5 4 3 1 0 0 0 0 0 0 0 0 0 0 0 0 0 0 0 0 0 0 0 0 0 0 1 1 0 0 0 0 0 0 0 0 0 0 0 0 0 0 0
6 4 3 3 1 0 0 0 0 1 1 0 0 0 0 0 0 0 0 0 0 0 0 0 0 0 1 1 0 0 0 0 0 0 0 0 0 0 0 0 0 0 0
6 4 4 4 3 1 0 0 0 1 2 1 0 1 1 0 0 0 0 0 0 1 1 1 0 0 0 0 0 0 0 0 0 0 0 0 0 0 1 1 1 0 0
6 5 4 4 4 3 1 1 1 2 2 1 0 1 2 1 1 0 0 0 0 1 2 1 0 0 0 0 0 0 0 0 0 0 0 0 0 1 3 4 3 2 1
5 4 5 5 6 6 4 3 2 2 1 0 0 1 2 3 3 1 0 0 0 2 2 1 0 0 0 0 0 0 0 0 0 0 0 0 0 1 3 5 5 4 3
6 5 5 6 7 8 8 5 4 3 2 2 1 0 2 4 4 3 1 1 1 2 2 1 0 0 0 0 0 0 0 0 0 0 0 0 0 0 1 3 3 4 4
7 7 6 6 7 8 9 8 6 4 3 3 3 2 3 5 6 5 4 2 2 3 2 1 0 0 0 0 0 0 0 0 0 0 0 0 0 0 0 0 1 2 3
10 9 9 8 8 9 11 10 6 3 3 4 4 5 6 7 7 7 6 4 3 3 2 1 1 1 0 0 0 0 0 0 0 0 0 0 0 0 0 0 0 1 2
15 13 12 12 11 11 12 9 5 2 2 3 4 6 7 7 7 7 6 5 4 4 3 2 2 2 1 0 0 0 0 0 0 0 0 0 0 0 0 0 0 0 1
21 19 17 15 13 12 11 8 6 3 2 3 4 6 7 6 6 6 6 6 4 4 3 3 2 3 2 1 0 0 0 0 0 0 0 0 0 0 0 0 0 0 0
26 25 23 20 15 12 9 9 8 6 3 3 4 6 6 6 6 7 8 7 5 5 4 3 2 2 2 1 0 0 0 0 0 0 0 0 0 0 0 0 0 0 0
28 28 28 25 19 14 11 12 12 9 7 7 8 9 8 8 8 10 11 9 8 6 5 3 2 1 1 0 0 0 0 0 0 0 0 0 0 0 0 0 0 0 0
28 30 30 27 22 18 15 14 14 12 11 11 12 12 11 9 10 12 12 11 9 7 6 4 2 1 0 0 0 0 0 0 0 0 0 0 0 0 0 0 0 0 0

GEFSSE_con_probscp_246.txt.gz
Probability
3 3 3 3 3 3 4 6 6 5 4 3 3 3 3 3 3 4 5 6 6 6 6 6 6 6 7 9 8 7 6 7 5 3 2 1 1 1 1 1 2 2 2
3 3 3 3 3 3 4 5 5 4 3 3 3 3 3 3 3 3 4 5 6 6 6 6 5 4 5 7 7 6 5 5 4 3 2 1 0 0 0 0 1 1 1
3 3 3 3 3 3 3 4 4 3 3 3 3 3 3 3 3 3 3 4 6 6 6 6 4 3 4 4 4 4 3 3 3 2 1 0 0 0 0 0 0 1 2
3 3 3 3 3 3 3 3 3 3 3 3 3 3 3 3 3 3 3 4 5 6 6 6 5 3 2 2 2 1 1 1 1 1 0 0 0 0 0 0 1 2 3
4 3 3 3 3 3 3 3 3 3 3 3 3 3 3 3 3 3 3 3 5 5 6 6 4 2 1 1 1 0 0 1 1 0 0 0 0 0 0 0 1 2 3
5 4 4 4 3 3 3 3 3 3 3 3 3 3 3 3 3 4 3 2 3 4 5 4 2 1 0 0 0 0 1 1 0 0 0 0 0 0 0 0 0 2 3
5 5 5 5 4 3 3 3 3 3 3 3 2 3 4 3 4 4 3 1 1 1 2 1 1 0 0 0 0 0 1 1 0 0 0 0 0 0 0 0 1 2 3
4 4 5 6 5 4 3 3 3 3 3 2 1 2 4 4 4 4 4 3 2 0 0 0 0 0 0 0 0 0 0 0 0 0 0 0 0 0 0 0 1 1 2
3 3 4 6 6 5 4 3 3 3 2 1 0 1 2 3 3 4 5 5 4 1 0 0 0 0 0 0 0 0 0 0 0 0 0 0 0 0 0 0 0 0 1
3 3 4 5 5 4 3 3 3 2 1 0 1 1 1 1 2 4 5 6 4 1 0 0 0 0 0 0 0 0 0 0 0 0 0 0 0 0 0 0 0 0 0
3 3 3 4 3 2 2 2 1 1 0 0 1 1 0 0 1 2 4 4 3 1 0 0 0 0 0 0 0 0 0 0 0 0 0 0 0 0 0 0 0 0 0
4 4 3 2 1 1 1 1 0 0 0 0 1 1 0 0 0 0 1 2 2 1 1 1 0 0 0 0 1 0 0 0 0 0 0 0 0 0 0 0 0 0 0
4 5 4 2 0 0 0 0 0 0 0 0 0 0 0 0 0 0 0 1 1 1 0 0 0 0 0 0 0 0 0 0 0 0 0 0 0 0 0 0 0 0 0
4 4 5 3 1 0 0 0 0 0 0 0 0 0 0 0 0 0 0 0 0 0 0 0 0 0 0 0 0 0 0 0 0 0 0 0 1 1 0 0 0 1 1
4 4 4 3 1 0 0 0 0 0 0 0 0 0 0 0 0 0 0 0 0 0 0 0 0 0 0 0 0 0 0 0 0 0 0 1 2 2 1 1 1 2 3
4 4 4 3 1 1 0 0 0 0 0 0 0 0 0 0 0 0 0 0 0 0 0 0 0 0 0 0 0 0 0 0 0 0 0 2 3 3 3 3 3 4 5
3 4 4 4 3 2 1 0 0 0 0 0 0 0 0 0 0 0 0 0 0 0 0 0 0 0 0 0 0 0 0 0 0 0 0 1 3 3 3 4 5 6 6
3 3 4 3 3 3 2 1 0 0 0 0 0 0 0 0 0 0 0 0 0 0 0 0 0 0 0 0 0 0 0 0 0 0 0 1 2 3 3 4 6 7 6
3 3 3 3 3 3 3 1 1 1 1 0 0 0 0 0 0 0 0 0 0 0 0 1 1 1 0 0 0 0 0 0 0 0 0 0 1 2 3 4 6 6 5
3 3 3 3 3 3 3 3 2 2 2 1 1 0 0 0 0 0 0 0 0 0 0 1 1 1 0 0 0 0 0 0 0 0 0 0 0 1 1 2 4 5 6
3 3 3 4 3 3 3 3 3 3 2 2 2 1 1 1 1 1 0 0 0 0 0 0 0 0 0 0 0 0 0 0 0 0 0 0 0 0 0 1 2 3 4
3 3 4 4 3 1 2 2 2 1 1 1 2 2 2 3 3 3 1 0 0 0 0 0 0 1 1 1 1 1 1 0 0 0 0 0 0 0 0 0 1 1 1
4 4 3 2 1 1 1 1 1 0 0 0 1 1 1 2 2 2 1 0 1 1 1 1 1 2 2 2 2 2 2 1 0 0 0 0 0 0 0 0 0 0 0
5 4 2 1 1 2 2 1 1 0 0 0 0 0 0 0 1 1 1 1 2 3 2 3 3 3 3 3 3 3 2 1 0 0 0 0 0 0 0 0 0 0 0
5 4 3 2 2 3 3 3 2 1 0 0 0 0 1 1 1 2 2 3 5 4 3 3 3 3 3 3 3 3 2 1 0 0 0 0 0 0 0 0 0 0 0
3 5 4 2 2 3 3 3 3 2 1 0 0 1 2 4 4 3 5 6 6 4 3 2 1 2 3 3 3 3 2 1 0 0 0 0 0 0 0 0 0 0 0

GEFSSE_con_probscp_252.txt.gz
Probability
0 0 1 3 4 3 1 0 0 0 0 0 0 0 0 1 2 2 1 0 0 0 1 1 1 2 5 7 8 6 4 3 4 4 4 3 3 3 2 2 1 1 0
0 0 1 2 3 2 0 0 0 0 0 0 0 0 0 0 1 1 0 0 0 0 1 1 1 3 5 5 6 5 4 4 4 3 2 2 2 2 1 1 1 2 1
0 0 0 1 1 0 0 0 0 0 0 0 0 0 0 0 0 0 0 0 0 0 1 2 1 2 3 3 3 3 3 3 3 2 1 1 1 1 0 1 2 3 2
0 0 0 0 0 0 0 0 0 0 0 0 0 0 0 0 0 0 0 0 0 0 1 1 1 1 2 3 2 3 3 3 2 1 0 0 0 0 0 1 2 2 1
0 0 0 0 0 0 0 0 0 0 0 0 0 0 0 0 0 0 0 0 0 0 0 0 0 1 2 2 3 3 3 2 1 1 0 0 0 0 0 0 1 1 1
0 0 0 0 0 0 0 0 0 0 0 0 0 0 0 0 0 0 1 2 1 0 0 0 0 1 1 1 1 1 2 2 1 0 0 0 0 0 0 0 1 1 1
0 0 0 0 0 0 0 0 0 0 0 0 0 0 0 0 0 0 1 3 2 1 1 1 1 2 1 0 0 0 1 1 1 0 0 0 0 0 0 0 1 1 1
0 0 0 0 0 0 0 0 0 0 0 0 0 0 0 0 0 0 1 2 2 2 2 2 2 2 1 0 0 0 0 0 0 0 0 0 0 0 0 0 0 0 0
0 0 0 0 0 0 0 0 0 0 0 0 0 0 0 0 0 1 1 2 3 3 3 3 2 1 1 0 0 0 0 0 0 0 0 0 0 0 0 0 0 0 0
0 0 0 0 0 0 0 0 0 0 0 0 0 0 0 0 1 2 2 2 2 2 2 1 1 0 0 0 0 0 0 0 0 0 0 0 0 0 0 0 0 0 0
1 0 0 0 0 0 0 0 0 0 0 0 0 0 0 0 1 2 2 1 1 1 1 0 0 0 0 0 0 0 0 0 0 0 0 0 0 0 0 0 0 0 0
3 2 1 0 0 0 0 0 0 0 0 0 0 0 0 0 0 1 1 1 0 0 0 0 0 0 0 0 0 0 0 0 0 0 0 0 0 0 0 0 0 0 0
5 4 3 1 1 0 0 1 1 1 1 0 0 0 0 0 0 0 1 1 0 0 0 0 0 0 0 0 0 0 0 0 0 0 0 1 0 0 0 0 0 1 1
6 5 4 3 2 1 2 2 2 2 2 1 1 0 0 0 0 1 1 1 0 0 0 0 0 0 0 0 0 0 0 0 0 0 0 1 0 0 0 0 1 2 2
5 4 3 3 4 4 4 4 3 3 3 3 2 1 0 0 0 1 2 2 1 1 1 1 2 1 1 1 1 1 1 0 0 0 1 1 1 1 1 0 1 3 4
4 3 3 4 5 7 7 5 3 2 3 3 3 2 2 1 1 0 1 2 3 2 3 3 3 3 2 2 2 2 1 0 0 0 1 2 3 2 2 2 3 4 5
3 3 3 3 5 7 8 7 4 2 2 3 4 4 3 2 1 1 2 3 4 4 4 4 4 3 3 3 3 3 2 1 0 0 2 3 3 3 3 3 3 4 4
3 3 3 3 3 6 7 7 5 3 3 4 5 5 4 2 1 2 4 5 4 4 4 4 4 3 3 3 3 3 2 1 1 0 1 3 3 3 3 3 3 3 3
4 4 3 2 3 5 6 7 6 5 4 4 4 4 4 2 2 3 4 5 4 3 3 4 3 3 3 3 3 2 1 1 2 1 1 3 3 3 3 3 3 3 3
5 5 4 3 3 4 5 5 6 6 4 3 3 3 3 3 2 1 2 3 4 3 3 3 3 3 3 3 3 1 1 1 2 1 2 3 3 2 2 3 3 2 3
7 7 6 4 4 5 4 4 5 4 3 2 2 3 4 3 2 1 1 3 3 3 3 4 3 3 3 3 3 1 1 1 1 1 2 3 2 1 1 1 2 3 3
7 7 6 5 5 5 4 3 3 2 2 1 1 3 4 3 3 3 3 4 4 4 4 5 4 4 3 3 3 2 1 0 0 0 1 2 2 1 0 1 2 3 3
4 5 5 6 7 6 4 2 1 1 1 1 1 3 4 4 4 6 6 6 6 6 6 6 5 4 3 2 3 3 2 1 0 0 0 1 1 0 0 1 2 2 3
1 2 4 6 8 8 7 5 3 3 2 1 1 2 3 4 6 8 8 8 7 7 6 6 4 3 1 1 3 4 3 3 1 0 0 0 0 0 0 1 1 1 2
1 3 6 8 10 11 11 9 8 7 5 4 3 3 4 6 8 8 10 10 9 7 7 6 5 2 1 2 4 6 6 5 3 1 0 0 0 0 0 0 0 1 2
2 4 7 9 11 13 13 11 11 10 9 7 7 6 6 8 9 9 10 11 10 8 7 7 6 4 2 3 5 7 7 6 4 2 1 0 0 0 0 0 1 1 1

GEFSSE_con_probscp_258.txt.gz
Probability
0 0 1 3 5 5 4 3 2 1 0 0 0 0 0 0 0 0 0 0 0 0 0 1 3 6 9 9 8 5 5 5 5 4 3 3 3 2 3 5 6 6 6
1 0 1 2 4 4 3 3 2 1 0 0 0 0 0 0 0 0 0 0 0 0 0 1 3 6 10 11 8 5 4 4 4 3 3 3 4 3 4 5 5 5 5
1 0 0 1 2 3 3 2 2 1 0 0 0 0 0 1 1 1 0 0 0 0 0 1 3 6 8 9 7 4 3 2 2 2 2 3 4 4 4 5 5 4 3
1 1 1 0 1 2 2 1 1 0 0 0 0 0 0 1 2 2 1 1 1 1 0 2 4 5 6 5 4 3 2 1 1 1 1 1 2 3 4 5 4 3 2
1 2 2 1 0 1 1 0 0 0 0 0 0 0 0 1 2 2 1 1 1 1 0 2 3 3 3 2 1 1 1 0 0 0 0 0 1 2 2 2 2 2 2
1 2 2 1 0 0 0 0 0 0 0 0 0 0 0 0 1 1 1 0 0 0 0 1 1 1 1 1 1 0 0 0 1 0 0 0 0 1 1 1 1 2 2
1 2 1 1 0 0 0 0 0 0 0 0 0 0 0 0 0 0 0 0 0 0 0 0 0 0 1 2 2 1 0 0 0 0 0 0 0 0 0 0 1 2 3
1 1 1 1 1 0 0 0 0 0 0 0 0 0 0 0 0 0 1 1 1 1 1 1 0 0 1 2 2 2 1 1 1 0 0 0 0 0 0 0 1 2 3
0 0 0 0 1 1 0 0 0 0 0 0 1 1 2 2 2 2 3 3 3 4 4 2 1 1 1 2 3 4 3 2 1 0 0 0 1 1 1 1 1 1 1
0 0 0 0 1 1 0 0 1 1 1 2 3 4 5 6 5 5 6 5 5 5 4 2 2 3 3 3 5 6 4 2 1 0 0 1 2 3 2 1 0 0 0
1 1 0 1 1 0 0 1 2 2 3 4 5 6 7 6 6 6 6 6 5 4 3 2 3 3 3 4 6 7 4 1 0 0 0 1 3 3 3 1 0 0 0
4 3 2 2 2 1 0 1 2 2 4 5 5 5 5 4 3 2 3 5 5 4 4 3 3 3 3 3 4 4 2 0 0 0 1 3 4 4 4 2 1 0 0
6 5 4 4 3 2 1 1 1 1 3 4 3 3 3 2 1 1 3 5 5 4 5 5 4 3 3 3 2 1 0 0 0 0 1 3 5 6 5 4 2 1 1
7 7 6 5 5 4 3 1 0 0 1 2 2 2 2 2 2 2 4 5 5 4 5 6 4 4 4 3 1 0 0 0 1 1 1 3 6 6 6 4 3 3 2
6 7 8 7 6 7 6 4 2 3 3 3 3 3 4 4 3 4 5 6 5 4 4 5 5 5 5 3 1 0 0 0 1 1 1 3 6 7 7 6 5 4 4
6 8 9 9 8 8 8 8 6 6 7 6 5 6 7 6 6 7 9 9 6 4 5 6 5 5 5 4 2 1 1 1 2 2 1 2 5 7 8 7 5 5 5
6 9 11 9 8 8 9 10 9 8 7 6 7 9 9 8 8 10 10 10 8 5 5 6 6 6 5 4 3 3 3 3 3 3 2 3 4 5 6 5 4 4 4
10 11 10 8 9 9 10 11 11 9 7 7 9 11 11 8 7 8 7 8 9 8 5 5 5 5 5 4 3 4 4 4 3 3 3 3 3 4 4 4 4 3 3
14 15 13 11 13 12 10 12 12 11 10 11 14 16 15 12 9 8 6 7 9 9 6 5 5 4 3 3 2 3 4 4 3 2 2 2 2 3 3 3 3 3 2
20 21 19 17 17 15 12 12 12 11 12 14 17 18 18 16 13 12 10 9 9 9 8 7 6 3 2 2 1 2 3 3 4 3 2 1 1 1 2 3 3 2 1
26 27 26 22 19 17 15 13 12 12 12 14 17 17 17 15 14 13 13 12 11 12 11 10 7 3 2 2 1 1 1 2 3 3 3 2 1 0 1 3 4 3 2
28 28 26 21 19 18 16 13 11 10 11 13 16 18 18 15 14 12 13 13 14 15 15 14 10 7 5 5 4 2 1 0 1 1 2 2 1 0 0 3 6 7 6
25 25 25 24 23 21 17 13 10 9 10 12 17 22 22 18 15 14 14 15 15 16 17 16 14 12 11 10 8 7 4 2 0 0 0 1 2 1 0 1 5 7 8
22 24 30 33 31 26 19 14 12 12 12 13 17 21 23 21 18 17 17 17 16 16 16 16 15 16 15 12 11 11 9 5 2 1 0 1 3 3 2 1 2 3 5
20 26 36 41 38 31 24 20 18 16 15 15 16 17 19 22 21 21 21 19 18 18 18 17 16 16 15 12 11 10 10 8 5 3 2 2 3 3 2 1 0 0 1
19 26 37 43 42 34 28 24 23 19 17 17 16 15 17 21 23 23 22 20 20 20 20 19 17 16 14 12 10 9 9 9 8 7 4 2 1 2 2 1 0 0 0